| time (UTC) | temp C | wind direction | speed KPH | gust KPH | rain 1hr cm | rain 24hr cm | rain mn cm | humidity % | barometer mb |
| 20260504041541 | 4 | 0 | 0.0 | 0.0 | 0.00 | 0.00 | 0.00 | 81 | 1013.8 |
| 20260504040043 | 5 | 0 | 0.0 | 0.0 | 0.00 | 0.00 | 0.00 | 80 | 1013.8 |
| 20260504034546 | 5 | 0 | 0.0 | 0.0 | 0.00 | 0.00 | 0.00 | 79 | 1013.8 |
| 20260504033037 | 5 | 0 | 0.0 | 0.0 | 0.00 | 0.00 | 0.00 | 77 | 1013.7 |
| 20260504031550 | 5 | 0 | 0.0 | 0.0 | 0.00 | 0.00 | 0.00 | 76 | 1013.8 |
| 20260504030055 | 6 | 0 | 0.0 | 0.0 | 0.00 | 0.00 | 0.00 | 76 | 1013.9 |
| 20260504024539 | 6 | 0 | 0.0 | 0.0 | 0.00 | 0.00 | 0.00 | 74 | 1014.0 |
| 20260504023041 | 6 | 0 | 0.0 | 0.0 | 0.00 | 0.00 | 0.00 | 73 | 1014.2 |
| 20260504021545 | 7 | 0 | 0.0 | 0.0 | 0.00 | 0.00 | 0.00 | 70 | 1014.0 |
| 20260504020038 | 7 | 0 | 0.0 | 0.0 | 0.00 | 0.00 | 0.00 | 68 | 1014.1 |
| 20260504014543 | 8 | 0 | 0.0 | 0.0 | 0.00 | 0.00 | 0.00 | 66 | 1014.1 |
| 20260504013050 | 8 | 0 | 0.0 | 0.0 | 0.00 | 0.00 | 0.00 | 63 | 1014.0 |
| 20260504011541 | 8 | 0 | 0.0 | 0.0 | 0.00 | 0.00 | 0.00 | 62 | 1013.9 |
| 20260504010050 | 9 | 0 | 0.0 | 0.0 | 0.00 | 0.00 | 0.00 | 59 | 1013.9 |
| 20260504004544 | 10 | 0 | 0.0 | 0.0 | 0.00 | 0.00 | 0.00 | 58 | 1013.9 |
| 20260504003035 | 11 | 0 | 0.0 | 0.0 | 0.00 | 0.00 | 0.00 | 56 | 1013.8 |
| 20260504001539 | 11 | 0 | 0.0 | 1.6 | 0.00 | 0.00 | 0.00 | 53 | 1013.8 |
| 20260504000040 | 11 | 0 | 0.0 | 3.2 | 0.00 | 0.00 | 0.00 | 52 | 1013.8 |
| 20260503234542 | 12 | 0 | 0.0 | 0.0 | 0.00 | 0.00 | 0.00 | 53 | 1013.8 |
| 20260503233038 | 12 | 65 | 0.0 | 4.8 | 0.00 | 0.00 | 0.00 | 54 | 1013.7 |
| 20260503231536 | 12 | 0 | 0.0 | 3.2 | 0.00 | 0.00 | 0.00 | 49 | 1013.8 |
| 20260503230050 | 12 | 0 | 0.0 | 4.8 | 0.00 | 0.00 | 0.00 | 49 | 1013.8 |
| 20260503224543 | 13 | 0 | 0.0 | 4.8 | 0.00 | 0.00 | 0.00 | 49 | 1013.8 |
| 20260503223051 | 13 | 0 | 0.0 | 4.8 | 0.00 | 0.00 | 0.00 | 49 | 1013.9 |
| 20260503221546 | 13 | 0 | 0.0 | 3.2 | 0.00 | 0.00 | 0.00 | 49 | 1014.0 |
| 20260503220039 | 15 | 60 | 0.0 | 8.0 | 0.00 | 0.00 | 0.00 | 45 | 1013.9 |
| 20260503214554 | 15 | 276 | 0.0 | 4.8 | 0.00 | 0.00 | 0.00 | 43 | 1013.8 |
| 20260503213036 | 16 | 0 | 0.0 | 16.1 | 0.00 | 0.00 | 0.00 | 48 | 1013.6 |
| 20260503211541 | 15 | 0 | 0.0 | 8.0 | 0.00 | 0.00 | 0.00 | 47 | 1013.7 |
| 20260503210039 | 15 | 259 | 0.0 | 6.4 | 0.00 | 0.00 | 0.00 | 44 | 1013.7 |
| 20260503204543 | 15 | 0 | 0.0 | 3.2 | 0.00 | 0.00 | 0.00 | 44 | 1013.8 |
| 20260503203037 | 15 | 108 | 0.0 | 9.7 | 0.00 | 0.00 | 0.00 | 44 | 1014.3 |
| 20260503201541 | 15 | 0 | 1.6 | 6.4 | 0.00 | 0.00 | 0.00 | 44 | 1014.4 |
| 20260503200036 | 15 | 94 | 1.6 | 9.7 | 0.00 | 0.00 | 0.00 | 46 | 1014.5 |
| 20260503194546 | 15 | 276 | 1.6 | 9.7 | 0.00 | 0.00 | 0.00 | 41 | 1014.9 |
| 20260503193039 | 15 | 0 | 0.0 | 6.4 | 0.00 | 0.00 | 0.00 | 45 | 1015.0 |
| 20260503191538 | 16 | 58 | 0.0 | 3.2 | 0.00 | 0.00 | 0.00 | 43 | 1015.3 |
| 20260503190043 | 16 | 97 | 0.0 | 6.4 | 0.00 | 0.00 | 0.00 | 42 | 1015.4 |
| 20260503184536 | 17 | 150 | 1.6 | 8.0 | 0.00 | 0.00 | 0.00 | 48 | 1015.5 |
| 20260503183050 | 17 | 0 | 0.0 | 8.0 | 0.00 | 0.00 | 0.00 | 41 | 1015.7 |
| 20260503181557 | 15 | 179 | 0.0 | 8.0 | 0.00 | 0.00 | 0.00 | 47 | 1015.9 |
| 20260503180048 | 15 | 63 | 1.6 | 9.7 | 0.00 | 0.00 | 0.00 | 44 | 1016.0 |
| 20260503174541 | 15 | 0 | 0.0 | 6.4 | 0.00 | 0.00 | 0.00 | 50 | 1016.2 |
| 20260503173040 | 14 | 134 | 1.6 | 6.4 | 0.00 | 0.00 | 0.00 | 47 | 1016.4 |
| 20260503171536 | 13 | 98 | 0.0 | 11.3 | 0.00 | 0.00 | 0.00 | 47 | 1016.5 |
| 20260503081542 | -1 | 0 | 0.0 | 0.0 | 0.00 | 0.03 | 0.00 | 93 | 1016.5 |
| 20260503071537 | 0 | 0 | 0.0 | 0.0 | 0.00 | 0.03 | 0.00 | 94 | 1016.3 |
| 20260503054541 | 0 | 0 | 0.0 | 0.0 | 0.00 | 0.03 | 0.00 | 93 | 1016.5 |
| 20260503053040 | 0 | 0 | 0.0 | 0.0 | 0.00 | 0.03 | 0.00 | 93 | 1016.5 |
| 20260503051539 | 0 | 0 | 0.0 | 0.0 | 0.00 | 0.03 | 0.00 | 92 | 1016.6 |
| 20260503050036 | 0 | 0 | 0.0 | 0.0 | 0.00 | 0.03 | 0.00 | 92 | 1016.6 |
| 20260503044552 | 0 | 0 | 0.0 | 0.0 | 0.00 | 0.03 | 0.00 | 92 | 1016.7 |
| 20260503043042 | 0 | 0 | 0.0 | 0.0 | 0.00 | 0.03 | 0.00 | 91 | 1016.8 |